When you browse on this site, cookies collect data to enhance your experience and personalize the content and advertising you see.
Visit our Privacy Policy to learn more. By continuing to use the site, you agree to this use of cookies and data.
  • In France
  • List of Countries
  • For 7 days
  • Water Temperature
  • Satellite Maps
  • Weather Map
  • Weather Widgets
  • user-avatar
    Login

    Hourly Weather Armawir

    Today, 25 April, Thursday

    Time Temperature Precipitation Wind Pressure Humidity
    00:00 +9°C° 0 mm 1 mps 692 mmHg 48%
    01:00 +8°C° 0 mm 1 mps 693 mmHg 50%
    02:00 +8°C° 0 mm 1 mps 693 mmHg 52%
    03:00 +8°C° 0 mm 1 mps 693 mmHg 53%
    04:00 +8°C° 0 mm 1 mps 693 mmHg 54%
    05:00 +8°C° 0 mm 1 mps 693 mmHg 55%
    06:00 +8°C° 0 mm 1 mps 694 mmHg 57%
    07:00 +9°C° 0 mm 1 mps 693 mmHg 52%
    08:00 +10°C° 0 mm 1 mps 693 mmHg 48%
    09:00 +12°C° 0 mm 1 mps 693 mmHg 43%
    10:00 +13°C° 0 mm 1 mps 693 mmHg 40%
    11:00 +14°C° 0 mm 1 mps 693 mmHg 37%
    12:00 +15°C° 0 mm 1 mps 693 mmHg 34%
    13:00 +15°C° 0 mm 1 mps 692 mmHg 33%
    14:00 +15°C° 0 mm 2 mps 692 mmHg 31%
    15:00 +16°C° 0 mm 2 mps 692 mmHg 30%
    16:00 +16°C° 0 mm 1 mps 692 mmHg 31%
    17:00 +15°C° 0 mm 1 mps 692 mmHg 32%
    18:00 +15°C° 0 mm 1 mps 692 mmHg 32%
    19:00 +13°C° 0 mm 1 mps 692 mmHg 36%
    20:00 +12°C° 0 mm 1 mps 692 mmHg 40%
    21:00 +10°C° 0 mm 0 mps 693 mmHg 43%
    22:00 +9°C° 0 mm 0 mps 693 mmHg 45%
    23:00 +8°C° 0 mm 0 mps 693 mmHg 48%

    Tomorrow, 26 April, Friday

    Time Temperature Precipitation Wind Pressure Humidity
    00:00 +8°C° 0 mm 0 mps 693 mmHg 50%
    01:00 +7°C° 0 mm 0 mps 693 mmHg 52%
    02:00 +7°C° 0 mm 0 mps 693 mmHg 54%
    03:00 +6°C° 0 mm 0 mps 693 mmHg 55%
    04:00 +6°C° 0 mm 0 mps 693 mmHg 56%
    05:00 +7°C° 0 mm 0 mps 693 mmHg 56%
    06:00 +7°C° 0 mm 0 mps 693 mmHg 57%
    07:00 +8°C° 0 mm 0 mps 693 mmHg 50%
    08:00 +11°C° 0 mm 1 mps 692 mmHg 44%
    09:00 +12°C° 0 mm 1 mps 692 mmHg 38%
    10:00 +14°C° 0 mm 2 mps 692 mmHg 35%
    11:00 +15°C° 0 mm 2 mps 691 mmHg 33%
    12:00 +16°C° 0 mm 3 mps 691 mmHg 30%
    13:00 +16°C° 0 mm 3 mps 691 mmHg 29%
    14:00 +17°C° 0 mm 3 mps 690 mmHg 28%
    15:00 +17°C° 0 mm 3 mps 690 mmHg 27%
    16:00 +17°C° 0 mm 3 mps 690 mmHg 28%
    17:00 +16°C° 0 mm 2 mps 690 mmHg 29%
    18:00 +16°C° 0 mm 2 mps 690 mmHg 30%
    19:00 +14°C° 0 mm 2 mps 690 mmHg 34%
    20:00 +12°C° 0 mm 1 mps 690 mmHg 38%
    21:00 +10°C° 0 mm 0 mps 691 mmHg 41%
    22:00 +9°C° 0 mm 0 mps 691 mmHg 43%
    23:00 +9°C° 0 mm 0 mps 691 mmHg 45%

    Day after tomorrow, 27 April, Saturday

    Time Temperature Precipitation Wind Pressure Humidity
    00:00 +8°C° 0 mm 0 mps 691 mmHg 48%
    01:00 +8°C° 0 mm 0 mps 691 mmHg 50%
    02:00 +7°C° 0 mm 0 mps 691 mmHg 52%
    03:00 +7°C° 0 mm 0 mps 690 mmHg 54%
    04:00 +7°C° 0 mm 0 mps 690 mmHg 55%
    05:00 +7°C° 0 mm 0 mps 691 mmHg 56%
    06:00 +8°C° 0 mm 0 mps 691 mmHg 57%
    07:00 +10°C° 0 mm 1 mps 690 mmHg 49%
    08:00 +12°C° 0 mm 1 mps 690 mmHg 41%
    09:00 +14°C° 0 mm 2 mps 690 mmHg 33%
    10:00 +15°C° 0 mm 2 mps 690 mmHg 31%
    11:00 +16°C° 0 mm 3 mps 690 mmHg 30%
    12:00 +17°C° 0 mm 3 mps 689 mmHg 28%
    13:00 +18°C° 0 mm 3 mps 689 mmHg 27%
    14:00 +18°C° 0 mm 3 mps 689 mmHg 26%
    15:00 +19°C° 0 mm 3 mps 689 mmHg 26%
    16:00 +18°C° 0 mm 3 mps 688 mmHg 27%
    17:00 +17°C° 0 mm 3 mps 688 mmHg 29%
    18:00 +17°C° 0 mm 3 mps 688 mmHg 31%
    19:00 +14°C° 0 mm 3 mps 688 mmHg 33%
    20:00 +14°C° 0 mm 2 mps 688 mmHg 34%
    21:00 +13°C° 0 mm 1 mps 688 mmHg 36%
    22:00 +12°C° 0 mm 1 mps 688 mmHg 36%
    23:00 +11°C° 0 mm 1 mps 688 mmHg 36%

    28 April, Sunday

    Time Temperature Precipitation Wind Pressure Humidity
    00:00 +11°C° 0 mm 1 mps 688 mmHg 37%
    01:00 +10°C° 0 mm 1 mps 688 mmHg 37%
    02:00 +10°C° 0 mm 1 mps 688 mmHg 38%
    03:00 +10°C° 0 mm 1 mps 687 mmHg 39%
    04:00 +10°C° 0 mm 1 mps 688 mmHg 41%
    05:00 +10°C° 0 mm 1 mps 688 mmHg 42%
    06:00 +10°C° 0 mm 1 mps 688 mmHg 43%
    07:00 +12°C° 0 mm 1 mps 688 mmHg 40%
    08:00 +14°C° 0 mm 2 mps 688 mmHg 36%
    09:00 +16°C° 0 mm 2 mps 688 mmHg 33%
    10:00 +17°C° 0 mm 2 mps 687 mmHg 32%
    11:00 +19°C° 0 mm 2 mps 687 mmHg 31%
    12:00 +20°C° 0 mm 2 mps 687 mmHg 30%
    13:00 +20°C° 0 mm 2 mps 687 mmHg 30%
    14:00 +21°C° 0 mm 2 mps 686 mmHg 29%
    15:00 +22°C° 0 mm 3 mps 686 mmHg 29%
    16:00 +21°C° 0.1 mm 3 mps 686 mmHg 31%
    17:00 +20°C° 0.1 mm 3 mps 686 mmHg 33%
    18:00 +20°C° 0.1 mm 4 mps 686 mmHg 35%
    19:00 +18°C° 0 mm 3 mps 686 mmHg 38%
    20:00 +16°C° 0 mm 2 mps 686 mmHg 42%
    21:00 +15°C° 0 mm 1 mps 687 mmHg 45%
    22:00 +14°C° 0 mm 1 mps 687 mmHg 47%
    23:00 +14°C° 0 mm 1 mps 687 mmHg 49%

    29 April, Monday

    Time Temperature Precipitation Wind Pressure Humidity
    00:00 +13°C° 0 mm 1 mps 687 mmHg 51%
    01:00 +13°C° 0 mm 1 mps 687 mmHg 53%
    02:00 +12°C° 0 mm 1 mps 686 mmHg 55%
    03:00 +12°C° 0 mm 1 mps 686 mmHg 57%
    04:00 +12°C° 0 mm 1 mps 687 mmHg 58%
    05:00 +13°C° 0 mm 1 mps 687 mmHg 58%
    06:00 +13°C° 0 mm 1 mps 687 mmHg 59%
    07:00 +15°C° 0 mm 1 mps 687 mmHg 54%
    08:00 +16°C° 0 mm 2 mps 687 mmHg 49%
    09:00 +18°C° 0 mm 2 mps 687 mmHg 45%
    10:00 +19°C° 0 mm 2 mps 687 mmHg 42%
    11:00 +21°C° 0 mm 2 mps 687 mmHg 40%
    12:00 +22°C° 0 mm 3 mps 686 mmHg 37%
    13:00 +22°C° 0.1 mm 3 mps 686 mmHg 36%
    14:00 +24°C° 0.1 mm 3 mps 686 mmHg 34%
    15:00 +24°C° 0.1 mm 3 mps 686 mmHg 33%
    16:00 +22°C° 0.2 mm 3 mps 686 mmHg 35%
    17:00 +21°C° 0.2 mm 3 mps 686 mmHg 38%
    18:00 +20°C° 0.2 mm 3 mps 686 mmHg 41%
    19:00 +19°C° 0.1 mm 3 mps 686 mmHg 45%
    20:00 +17°C° 0.1 mm 2 mps 686 mmHg 49%
    21:00 +16°C° 0.1 mm 2 mps 686 mmHg 54%
    22:00 +15°C° 0 mm 2 mps 686 mmHg 54%
    23:00 +15°C° 0 mm 2 mps 686 mmHg 55%

    30 April, Tuesday

    Time Temperature Precipitation Wind Pressure Humidity
    00:00 +14°C° 0 mm 2 mps 686 mmHg 56%
    01:00 +14°C° 0 mm 2 mps 686 mmHg 58%
    02:00 +14°C° 0 mm 2 mps 686 mmHg 59%
    03:00 +13°C° 0 mm 1 mps 686 mmHg 60%
    04:00 +13°C° 0.1 mm 1 mps 686 mmHg 61%
    05:00 +13°C° 0.1 mm 1 mps 686 mmHg 61%
    06:00 +14°C° 0.1 mm 1 mps 687 mmHg 62%
    07:00 +15°C° 0 mm 1 mps 687 mmHg 57%
    08:00 +18°C° 0 mm 1 mps 687 mmHg 51%
    09:00 +18°C° 0 mm 2 mps 687 mmHg 46%
    10:00 +20°C° 0 mm 2 mps 687 mmHg 42%
    11:00 +21°C° 0 mm 2 mps 687 mmHg 37%
    12:00 +23°C° 0 mm 2 mps 687 mmHg 33%
    13:00 +24°C° 0 mm 2 mps 686 mmHg 30%
    14:00 +25°C° 0 mm 3 mps 686 mmHg 28%
    15:00 +25°C° 0 mm 3 mps 686 mmHg 26%
    16:00 +25°C° 0 mm 3 mps 686 mmHg 29%
    17:00 +23°C° 0 mm 4 mps 686 mmHg 31%
    18:00 +22°C° 0 mm 4 mps 686 mmHg 33%
    19:00 +20°C° 0 mm 4 mps 686 mmHg 36%
    20:00 +19°C° 0 mm 3 mps 686 mmHg 39%
    21:00 +17°C° 0 mm 2 mps 686 mmHg 42%
    22:00 +17°C° 0 mm 2 mps 686 mmHg 43%
    23:00 +16°C° 0 mm 2 mps 687 mmHg 43%
    Show more